User: anonymous   Login
Location: Unspecified
(0.0000°N, 0.0000°E)
Time: 06:05:55
(UTC+00:00)
Language:

GALILEO-FM2 - Orbit

View from above orbital plane
View from above orbital plane
View from above satellite
View from above satellite

Ground track
Ground track

The orbit data is extracted from the following two-line orbital elements,

1 37847U 11060B   18232.55925382 -.00000043  00000-0  00000+0 0  9999
2 37847  56.1573  59.7244 0002798 333.6347  51.1095  1.70475957 42534
Epoch (UTC): 20 August 2018 13:25:19
Eccentricity: 0.0002798
inclination: 56.1573°
perigee height: 23213 km
apogee height: 23230 km
right ascension of ascending node: 59.7244°
argument of perigee: 333.6347°
revolutions per day: 1.70475957
mean anomaly at epoch: 51.1095°
orbit number at epoch: 4253

The dashed part of the orbit path shows where the satellite is in the earth's shadow,  

DLR